Погода в Сынжерее

Молдова     47°38′05″N   28°08′32″E
В апреле 2022 года жителям России запретили посещать сайт meteo.paraplan.net по решению Генеральной прокуратуры. Аудитория сайта уменьшилась в 10 раз. Владельцы сайта не видят смысла в поддержке погодного сервера в таких условиях. Сайт будет закрыт в октябре.
темп.,
°C
ветер,
м/с
пор.,
м/с
влажн.,
%
обл.,
%
осадки,
мм/ч
давл.,
гПа
погр.,
м
30 сентября, пт
пт3000:00+17сз22705 0.0 100815
03:00+16сз11755 0.0 100911
06:00+14зсз11805 0.0 101010
09:00+17ссз1168100 0.0 101191
12:00+21з1150100 0.0 1013499
15:00+24ю234010 0.0 10131087
18:00+22ююв224579 0.0 101313
21:00+19юв11525 0.0 101411
1 октября, сб
сб100:00+18ююз11595 0.0 101511
03:00+16юз11635 0.0 101611
06:00+15юз22666 0.0 101711
09:00+18ююз1257100 0.0 1017102
12:00+24ююз4543100 0.0 1017692
15:00+27юз5634100 0.0 10151648
18:00+24ю2241100 0.0 101316
21:00+22юв1145100 0.0 101111
2 октября, вс
вс200:00+20юз2249100 0.0 100911
03:00+19зюз245792 0.3 100963
06:00+16сз5978100 0.2 1009323
09:00+17зсз3976100 0.3 1008447
12:00+17сз101171100 0.2 1009966
15:00+12сз81383100 1.3 1011845
18:00+15сз712615 0.1 10101324
21:00+12сз713795 0.1 1012771
3 октября, пн
пн300:00+11сз8157757 0.0 1012759
03:00+11зсз6137616 0.0 1013631
06:00+11зсз71376100 0.1 1013738
09:00+12зсз7127382 0.3 1013869
12:00+14сз8115898 0.1 10141321
15:00+16зсз8114832 0.1 10141807
18:00+14сз710615 0.4 10151126
21:00+12сз6961100 0.4 10171204
4 октября, вт
вт400:00+12з3865100 0.0 1017697
03:00+11зюз4871100 0.0 1017411
06:00+11зюз3773100 0.1 1017483
09:00+11юз4878100 0.4 1017502
12:00+12юз2571100 0.6 1017382
15:00+12сз4772100 0.8 1017445
18:00+12зюз247568 0.6 1018247
21:00+10зюз248378 1.8 1019128